Simultaneous Nadir Overpasses (SNOs) Predictions

Prediction of SNOs between GOES-16 and LANDSAT-8 Satellite Orbit:

Table of predicted SNOs for the next 14.0 days since TLE Epoch: 10/12/2024
Index Date Time (GOES-16) GOES-16 Lat,Lon LANDSAT-8 Lat,Lon Distance(km) Time Diff (sec)
1 10/13/2024 15:00:27 -0.06, -75.22 -0.66, -72.47 313.11 80
2 10/14/2024 03:24:30 0.05, -75.21 -0.48, -77.65 278.32 80
3 10/16/2024 03:09:39 0.05, -75.23 0.14, -74.70 59.87 80
4 10/18/2024 02:57:28 0.05, -75.25 0.78, -71.74 398.92 80
5 10/18/2024 15:21:22 -0.05, -75.27 0.32, -76.89 185.15 80
6 10/20/2024 15:06:29 -0.05, -75.29 -0.36, -73.93 155.01 80
7 10/21/2024 03:30:32 0.05, -75.28 -0.77, -79.11 435.51 80
8 10/22/2024 14:54:14 -0.04, -75.32 -0.98, -70.96 496.15 80
9 10/23/2024 03:18:17 0.04, -75.31 -0.12, -76.14 94.03 80
10 10/25/2024 03:03:20 0.04, -75.35 0.48, -73.16 248.87 80
11 10/25/2024 15:27:14 -0.03, -75.37 0.62, -78.31 334.17 80
